Mankato, MN

9:14 AM CDT on August 23, 2019 (GMT -0500)
Mankato Regional

Weather History for KMKT - May, 2019

Change the Weather History Date:

Sunday, May 26, 2019

  Actual Average Record
Temperature  
Mean Temperature 60 °F -  
Max Temperature 73 °F 67 °F 95 °F (2018)
Min Temperature 48 °F 50 °F 42 °F (2004)
Degree Days  
Heating Degree Days 5    
Growing Degree Days 10 (Base 50)    
Moisture  
Dew Point 48 °F    
Average Humidity 63    
Maximum Humidity 97    
Minimum Humidity 41    
Precipitation  
Precipitation 0.00 in - - ()
Sea Level Pressure  
Sea Level Pressure 30.08 in    
Wind  
Wind Speed 4 mph (NE)    
Max Wind Speed 8 mph    
Max Gust Speed -    
Visibility 9 miles    
Events      
Averages and records for this station are not official NWS values.
T = Trace of Precipitation, MM = Missing Value Source: NWS Daily Summary

Daily Weather History Graph

Daily Weather History Graph

Search for Another Location

Airport or City:

Astronomy

May. 26, 2019 Rise Set
Actual Time 5:39 AM CDT 8:46 PM CDT
Civil Twilight 5:04 AM CDT 9:21 PM CDT
Nautical Twilight 4:19 AM CDT 10:07 PM CDT
Astronomical Twilight 3:25 AM CDT 11:01 PM CDT
Moon 2:15 AM CDT (5/26) 12:42 PM CDT (5/26)
Length of Visible Light 16h 17m
Length of Day
15h 07m
Waning Gibbous, 50% of the Moon is Illuminated
May 26
Waning Gibbous
Jun 3
New
Jun 10
First Quarter
Jun 17
Full
Jun 25
Last Quarter

Hourly Weather History & Observations

Time (CDT) Temp. Dew Point Humidity Pressure Visibility Wind Dir Wind Speed Gust Speed Precip Events Conditions
12:56 AM 54.0 °F 48.9 °F 83% 30.04 in 10.0 mi NNW 6.9 mph - N/A   Clear
1:56 AM 52.0 °F 48.9 °F 89% 30.06 in 10.0 mi Calm Calm - N/A   Clear
2:56 AM 52.0 °F 48.9 °F 89% 30.05 in 10.0 mi NNW 4.6 mph - N/A   Clear
3:56 AM 50.0 °F 48.0 °F 93% 30.07 in 10.0 mi North 3.5 mph - N/A   Clear
4:56 AM 50.0 °F 48.0 °F 93% 30.09 in 10.0 mi NNE 4.6 mph - N/A   Clear
5:56 AM 48.9 °F 46.9 °F 93% 30.11 in 10.0 mi Calm Calm - N/A   Clear
6:56 AM 48.9 °F 48.0 °F 97% 30.11 in 10.0 mi Calm Calm - N/A   Clear
7:56 AM 55.0 °F 48.9 °F 80% 30.12 in 10.0 mi NNE 6.9 mph - N/A   Clear
8:56 AM 59.0 °F 48.0 °F 67% 30.12 in 10.0 mi ENE 4.6 mph - N/A   Clear
9:56 AM 61.0 °F 48.0 °F 62% 30.14 in 10.0 mi East 4.6 mph - N/A   Clear
10:56 AM 61.0 °F 46.0 °F 58% 30.13 in 10.0 mi SSE 5.8 mph - N/A   Clear
11:56 AM 64.0 °F 48.0 °F 56% 30.14 in 10.0 mi East 5.8 mph - N/A   Clear
12:56 PM 66.0 °F 48.0 °F 52% 30.14 in 10.0 mi NNE 4.6 mph - N/A   Clear
1:56 PM 66.9 °F 48.0 °F 51% 30.12 in 10.0 mi Variable 3.5 mph - N/A   Clear
2:56 PM 68.0 °F 46.9 °F 47% 30.09 in 10.0 mi Calm Calm - N/A   Clear
3:56 PM 70.0 °F 48.0 °F 46% 30.08 in 10.0 mi NE 4.6 mph - N/A   Clear
4:56 PM 71.1 °F 46.9 °F 42% 30.07 in 9.0 mi Calm Calm - N/A   Clear
5:14 PM 71.6 °F 46.4 °F 41% 30.06 in 1.8 mi Calm Calm - N/A   Haze
5:23 PM 71.6 °F 46.4 °F 41% 30.06 in 3.0 mi East 3.5 mph - N/A   Haze
5:56 PM 72.0 °F 48.0 °F 43% 30.06 in 10.0 mi Calm Calm - N/A   Clear
6:56 PM 72.0 °F 46.9 °F 41% 30.03 in 10.0 mi NE 5.8 mph - N/A   Clear
7:56 PM 70.0 °F 48.0 °F 46% 30.03 in 10.0 mi NE 5.8 mph - N/A   Clear
8:56 PM 66.9 °F 48.9 °F 52% 30.02 in 10.0 mi ENE 4.6 mph - N/A   Clear
9:56 PM 64.9 °F 50.0 °F 58% 30.03 in 10.0 mi East 6.9 mph - N/A   Clear
10:56 PM 64.0 °F 50.0 °F 60% 30.01 in 10.0 mi ENE 6.9 mph - N/A   Clear
11:56 PM 63.0 °F 50.0 °F 63% 30.01 in 10.0 mi East 8.1 mph - N/A   Clear